contact:dominique.lefevre@mio.osupytheas.fr, maurice.libes@osupytheas.fr, didier.mallarino@osupytheas.fr
Project:EMSO http://www.emso-fr.org/EMSO-France
Depth: 2436.0 m
Title:EMSO Ligure Ouest : Data MII capteur MICROCAT
DateTime_Computer,Latitude,Longitude,Temperature,Conductivity,Pressure,DateTime_Instrument
DateTime_Computer,Latitude,Longitude,degC,S m-1,dbar,DateTime_Instrument
2019-09-05T00:01:00Z,42.805,6.029,13.2991,4.60013,2469.97,2019-9-05T02:01:23Z
2019-09-05T00:04:04Z,42.805,6.029,13.2977,4.60026,2469.96,2019-9-05T02:04:26Z
2019-09-05T00:07:07Z,42.805,6.029,13.2991,4.60036,2469.947,2019-9-05T02:07:29Z
2019-09-05T00:10:10Z,42.805,6.029,13.3005,4.60042,2469.923,2019-9-05T02:10:32Z
2019-09-05T00:13:13Z,42.805,6.029,13.2986,4.60019,2469.984,2019-9-05T02:13:35Z
2019-09-05T00:16:16Z,42.805,6.029,13.2992,4.59984,2469.923,2019-9-05T02:16:39Z
2019-09-05T00:19:19Z,42.805,6.029,13.2979,4.60007,2469.947,2019-9-05T02:19:42Z
2019-09-05T00:22:23Z,42.805,6.029,13.2969,4.59980,2469.923,2019-9-05T02:22:45Z
2019-09-05T00:25:26Z,42.805,6.029,13.2978,4.59967,2469.947,2019-9-05T02:25:48Z
2019-09-05T00:28:29Z,42.805,6.029,13.2994,4.59983,2469.923,2019-9-05T02:28:51Z
2019-09-05T00:31:32Z,42.805,6.029,13.2974,4.59972,2469.947,2019-9-05T02:31:55Z
2019-09-05T00:34:36Z,42.805,6.029,13.2993,4.59980,2469.984,2019-9-05T02:34:58Z
2019-09-05T00:37:39Z,42.805,6.029,13.2968,4.59988,2470.007,2019-9-05T02:38:01Z
2019-09-05T00:40:42Z,42.805,6.029,13.2994,4.59986,2469.96,2019-9-05T02:41:04Z
2019-09-05T00:43:45Z,42.805,6.029,13.2977,4.59971,2469.923,2019-9-05T02:44:07Z
2019-09-05T00:46:48Z,42.805,6.029,13.2978,4.59965,2469.947,2019-9-05T02:47:11Z
2019-09-05T00:49:52Z,42.805,6.029,13.2994,4.59985,2469.947,2019-9-05T02:50:14Z
2019-09-05T00:52:55Z,42.805,6.029,13.2994,4.59994,2469.96,2019-9-05T02:53:17Z
2019-09-05T00:55:58Z,42.805,6.029,13.2990,4.60019,2469.9,2019-9-05T02:56:20Z
2019-09-05T00:59:01Z,42.805,6.029,13.2997,4.60005,2469.937,2019-9-05T02:59:23Z
2019-09-05T01:02:04Z,42.805,6.029,13.2996,4.60011,2469.923,2019-9-05T03:02:27Z
2019-09-05T01:05:07Z,42.805,6.029,13.2996,4.59992,2469.947,2019-9-05T03:05:30Z
2019-09-05T01:08:11Z,42.805,6.029,13.2999,4.59998,2469.923,2019-9-05T03:08:33Z
2019-09-05T01:11:14Z,42.805,6.029,13.3028,4.60006,2469.97,2019-9-05T03:11:36Z
2019-09-05T01:14:17Z,42.805,6.029,13.2991,4.59999,2469.937,2019-9-05T03:14:40Z
2019-09-05T01:17:21Z,42.805,6.029,13.2984,4.59985,2469.9,2019-9-05T03:17:43Z
2019-09-05T01:20:24Z,42.805,6.029,13.2979,4.59975,2469.947,2019-9-05T03:20:46Z
2019-09-05T01:23:27Z,42.805,6.029,13.3007,4.59994,2469.947,2019-9-05T03:23:49Z
2019-09-05T01:26:30Z,42.805,6.029,13.2960,4.59966,2469.9,2019-9-05T03:26:52Z
2019-09-05T01:29:33Z,42.805,6.029,13.2963,4.59963,2469.923,2019-9-05T03:29:56Z
2019-09-05T01:32:37Z,42.805,6.029,13.2965,4.59966,2469.947,2019-9-05T03:32:59Z
2019-09-05T01:35:40Z,42.805,6.029,13.2964,4.59962,2469.923,2019-9-05T03:36:02Z
2019-09-05T01:38:43Z,42.805,6.029,13.2958,4.59963,2469.914,2019-9-05T03:39:05Z
2019-09-05T01:41:46Z,42.805,6.029,13.2957,4.59961,2469.914,2019-9-05T03:42:08Z
2019-09-05T01:44:49Z,42.805,6.029,13.2961,4.59962,2469.9,2019-9-05T03:45:12Z
2019-09-05T01:47:53Z,42.805,6.029,13.2961,4.59961,2469.923,2019-9-05T03:48:15Z
2019-09-05T01:50:56Z,42.805,6.029,13.2972,4.59958,2469.923,2019-9-05T03:51:18Z
2019-09-05T01:53:59Z,42.805,6.029,13.2971,4.59975,2469.923,2019-9-05T03:54:21Z
2019-09-05T01:57:02Z,42.805,6.029,13.2971,4.59963,2469.923,2019-9-05T03:57:24Z
2019-09-05T02:00:05Z,42.805,6.029,13.2978,4.59955,2469.914,2019-9-05T04:00:28Z
2019-09-05T02:03:09Z,42.805,6.029,13.2957,4.59967,2469.9,2019-9-05T04:03:31Z
2019-09-05T02:06:12Z,42.805,6.029,13.2961,4.59971,2469.937,2019-9-05T04:06:34Z
2019-09-05T02:09:15Z,42.805,6.029,13.2958,4.59957,2469.914,2019-9-05T04:09:37Z
2019-09-05T02:12:18Z,42.805,6.029,13.2954,4.59958,2469.914,2019-9-05T04:12:41Z
2019-09-05T02:15:21Z,42.805,6.029,13.2957,4.59962,2469.9,2019-9-05T04:15:44Z
2019-09-05T02:18:25Z,42.805,6.029,13.2957,4.59962,2469.89,2019-9-05T04:18:47Z
2019-09-05T02:21:28Z,42.805,6.029,13.2956,4.59964,2469.9,2019-9-05T04:21:50Z
2019-09-05T02:24:31Z,42.805,6.029,13.2958,4.59964,2469.876,2019-9-05T04:24:53Z
2019-09-05T02:27:34Z,42.805,6.029,13.2957,4.59961,2469.914,2019-9-05T04:27:57Z
2019-09-05T02:30:37Z,42.805,6.029,13.2957,4.59956,2469.876,2019-9-05T04:31:00Z
2019-09-05T02:33:41Z,42.805,6.029,13.2958,4.59964,2469.876,2019-9-05T04:34:03Z
2019-09-05T02:36:44Z,42.805,6.029,13.2959,4.59960,2469.89,2019-9-05T04:37:06Z
2019-09-05T02:39:47Z,42.805,6.029,13.2957,4.59957,2469.89,2019-9-05T04:40:09Z
2019-09-05T02:42:50Z,42.805,6.029,13.2956,4.59958,2469.853,2019-9-05T04:43:12Z
2019-09-05T02:45:53Z,42.805,6.029,13.2954,4.59956,2469.839,2019-9-05T04:46:16Z
2019-09-05T02:48:57Z,42.805,6.029,13.2957,4.59960,2469.9,2019-9-05T04:49:19Z
2019-09-05T02:52:00Z,42.805,6.029,13.2953,4.59958,2469.867,2019-9-05T04:52:22Z
2019-09-05T02:55:03Z,42.805,6.029,13.2957,4.59962,2469.876,2019-9-05T04:55:25Z
2019-09-05T02:58:06Z,42.805,6.029,13.2958,4.59964,2469.9,2019-9-05T04:58:29Z
2019-09-05T03:01:10Z,42.805,6.029,13.2957,4.59959,2469.853,2019-9-05T05:01:32Z
2019-09-05T03:04:13Z,42.805,6.029,13.2958,4.59954,2469.867,2019-9-05T05:04:35Z
2019-09-05T03:07:16Z,42.805,6.029,13.2958,4.59955,2469.9,2019-9-05T05:07:38Z
2019-09-05T03:10:19Z,42.805,6.029,13.2958,4.59958,2469.876,2019-9-05T05:10:42Z
2019-09-05T03:13:22Z,42.805,6.029,13.2957,4.59956,2469.867,2019-9-05T05:13:45Z
2019-09-05T03:16:26Z,42.805,6.029,13.2958,4.59958,2469.876,2019-9-05T05:16:48Z
2019-09-05T03:19:29Z,42.805,6.029,13.2957,4.59960,2469.89,2019-9-05T05:19:51Z
2019-09-05T03:22:32Z,42.805,6.029,13.2955,4.59954,2469.876,2019-9-05T05:22:54Z
2019-09-05T03:25:35Z,42.805,6.029,13.2953,4.59956,2469.853,2019-9-05T05:25:58Z
2019-09-05T03:28:39Z,42.805,6.029,13.2959,4.59954,2469.876,2019-9-05T05:29:01Z
2019-09-05T03:31:42Z,42.805,6.029,13.2954,4.59957,2469.853,2019-9-05T05:32:04Z
2019-09-05T03:34:45Z,42.805,6.029,13.2958,4.59959,2469.867,2019-9-05T05:35:07Z
2019-09-05T03:37:48Z,42.805,6.029,13.2957,4.59956,2469.853,2019-9-05T05:38:10Z
2019-09-05T03:40:51Z,42.805,6.029,13.2958,4.59954,2469.89,2019-9-05T05:41:14Z
2019-09-05T03:43:55Z,42.805,6.029,13.2957,4.59955,2469.83,2019-9-05T05:44:17Z
2019-09-05T03:46:58Z,42.805,6.029,13.2958,4.59956,2469.853,2019-9-05T05:47:20Z
2019-09-05T03:50:01Z,42.805,6.029,13.2961,4.59956,2469.853,2019-9-05T05:50:23Z
2019-09-05T03:53:04Z,42.805,6.029,13.2958,4.59954,2469.853,2019-9-05T05:53:26Z
2019-09-05T03:56:07Z,42.805,6.029,13.2954,4.59955,2469.853,2019-9-05T05:56:30Z
2019-09-05T03:59:11Z,42.805,6.029,13.2955,4.59955,2469.83,2019-9-05T05:59:33Z
2019-09-05T04:02:14Z,42.805,6.029,13.2957,4.59955,2469.867,2019-9-05T06:02:36Z
2019-09-05T04:05:17Z,42.805,6.029,13.2952,4.59961,2469.876,2019-9-05T06:05:39Z
2019-09-05T04:08:20Z,42.805,6.029,13.2958,4.59954,2469.853,2019-9-05T06:08:42Z
2019-09-05T04:11:23Z,42.805,6.029,13.2957,4.59956,2469.844,2019-9-05T06:11:46Z
2019-09-05T04:14:27Z,42.805,6.029,13.2958,4.59955,2469.844,2019-9-05T06:14:49Z
2019-09-05T04:17:30Z,42.805,6.029,13.2958,4.59957,2469.844,2019-9-05T06:17:52Z
2019-09-05T04:20:33Z,42.805,6.029,13.2953,4.59955,2469.83,2019-9-05T06:20:55Z
2019-09-05T04:23:36Z,42.805,6.029,13.2958,4.59955,2469.853,2019-9-05T06:23:58Z
2019-09-05T04:26:39Z,42.805,6.029,13.2957,4.59953,2469.867,2019-9-05T06:27:02Z
2019-09-05T04:29:43Z,42.805,6.029,13.2958,4.59954,2469.83,2019-9-05T06:30:05Z
2019-09-05T04:32:46Z,42.805,6.029,13.2953,4.59958,2469.83,2019-9-05T06:33:08Z
2019-09-05T04:35:49Z,42.805,6.029,13.2961,4.59958,2469.853,2019-9-05T06:36:11Z
2019-09-05T04:38:52Z,42.805,6.029,13.2956,4.59956,2469.853,2019-9-05T06:39:14Z
2019-09-05T04:41:55Z,42.805,6.029,13.2956,4.59955,2469.844,2019-9-05T06:42:18Z
2019-09-05T04:44:59Z,42.805,6.029,13.2959,4.59955,2469.867,2019-9-05T06:45:21Z
2019-09-05T04:48:02Z,42.805,6.029,13.2957,4.59957,2469.83,2019-9-05T06:48:24Z
2019-09-05T04:51:05Z,42.805,6.029,13.2956,4.59957,2469.853,2019-9-05T06:51:27Z
2019-09-05T04:54:08Z,42.805,6.029,13.2956,4.59956,2469.876,2019-9-05T06:54:30Z
2019-09-05T04:57:11Z,42.805,6.029,13.2956,4.59955,2469.844,2019-9-05T06:57:34Z
2019-09-05T05:00:15Z,42.805,6.029,13.2959,4.59956,2469.821,2019-9-05T07:00:37Z
2019-09-05T05:03:18Z,42.805,6.029,13.2956,4.59954,2469.853,2019-9-05T07:03:40Z
2019-09-05T05:06:21Z,42.805,6.029,13.2958,4.59956,2469.806,2019-9-05T07:06:43Z
2019-09-05T05:09:24Z,42.805,6.029,13.2959,4.59956,2469.83,2019-9-05T07:09:46Z
2019-09-05T05:12:27Z,42.805,6.029,13.2956,4.59955,2469.83,2019-9-05T07:12:50Z
2019-09-05T05:15:30Z,42.805,6.029,13.2955,4.59954,2469.83,2019-9-05T07:15:53Z
2019-09-05T05:18:34Z,42.805,6.029,13.2952,4.59956,2469.876,2019-9-05T07:18:56Z
2019-09-05T05:21:37Z,42.805,6.029,13.2958,4.59956,2469.844,2019-9-05T07:21:59Z
2019-09-05T05:24:40Z,42.805,6.029,13.2958,4.59953,2469.806,2019-9-05T07:25:02Z
2019-09-05T05:27:43Z,42.805,6.029,13.2957,4.59956,2469.83,2019-9-05T07:28:06Z
2019-09-05T05:30:46Z,42.805,6.029,13.2955,4.59955,2469.844,2019-9-05T07:31:09Z
2019-09-05T05:33:50Z,42.805,6.029,13.2964,4.59954,2469.853,2019-9-05T07:34:12Z
2019-09-05T05:36:53Z,42.805,6.029,13.2957,4.59954,2469.783,2019-9-05T07:37:15Z
2019-09-05T05:39:56Z,42.805,6.029,13.2958,4.59959,2469.806,2019-9-05T07:40:18Z
2019-09-05T05:42:59Z,42.805,6.029,13.2957,4.59954,2469.83,2019-9-05T07:43:22Z
2019-09-05T05:46:03Z,42.805,6.029,13.2957,4.59954,2469.83,2019-9-05T07:46:25Z
2019-09-05T05:49:06Z,42.805,6.029,13.2955,4.59954,2469.806,2019-9-05T07:49:28Z
2019-09-05T05:52:09Z,42.805,6.029,13.2958,4.59954,2469.806,2019-9-05T07:52:31Z
2019-09-05T05:55:12Z,42.805,6.029,13.2954,4.59960,2469.83,2019-9-05T07:55:34Z
2019-09-05T05:58:15Z,42.805,6.029,13.2958,4.59954,2469.83,2019-9-05T07:58:38Z
2019-09-05T06:01:19Z,42.805,6.029,13.2959,4.59955,2469.844,2019-9-05T08:01:41Z
2019-09-05T06:04:22Z,42.805,6.029,13.2959,4.59954,2469.821,2019-9-05T08:04:44Z
2019-09-05T06:07:25Z,42.805,6.029,13.2956,4.59954,2469.806,2019-9-05T08:07:47Z
2019-09-05T06:10:28Z,42.805,6.029,13.2955,4.59956,2469.83,2019-9-05T08:10:50Z
2019-09-05T06:13:31Z,42.805,6.029,13.2957,4.59954,2469.844,2019-9-05T08:13:54Z
2019-09-05T06:16:35Z,42.805,6.029,13.2957,4.59954,2469.806,2019-9-05T08:16:57Z
2019-09-05T06:19:38Z,42.805,6.029,13.2957,4.59953,2469.867,2019-9-05T08:20:00Z
2019-09-05T06:22:41Z,42.805,6.029,13.2960,4.59954,2469.806,2019-9-05T08:23:03Z
2019-09-05T06:25:44Z,42.805,6.029,13.2955,4.59953,2469.806,2019-9-05T08:26:06Z
2019-09-05T06:28:47Z,42.805,6.029,13.2955,4.59954,2469.821,2019-9-05T08:29:10Z
2019-09-05T06:31:51Z,42.805,6.029,13.2957,4.59955,2469.806,2019-9-05T08:32:13Z
2019-09-05T06:34:54Z,42.805,6.029,13.2957,4.59956,2469.83,2019-9-05T08:35:16Z
2019-09-05T06:37:57Z,42.805,6.029,13.2957,4.59952,2469.783,2019-9-05T08:38:19Z
2019-09-05T06:41:00Z,42.805,6.029,13.2953,4.59953,2469.83,2019-9-05T08:41:23Z
2019-09-05T06:44:03Z,42.805,6.029,13.2957,4.59953,2469.821,2019-9-05T08:44:26Z
2019-09-05T06:47:07Z,42.805,6.029,13.2955,4.59957,2469.867,2019-9-05T08:47:29Z
2019-09-05T06:50:10Z,42.805,6.029,13.2956,4.59954,2469.83,2019-9-05T08:50:32Z
2019-09-05T06:53:13Z,42.805,6.029,13.2956,4.59954,2469.783,2019-9-05T08:53:35Z
2019-09-05T06:56:16Z,42.805,6.029,13.2957,4.59956,2469.83,2019-9-05T08:56:38Z
2019-09-05T06:59:19Z,42.805,6.029,13.2956,4.59953,2469.83,2019-9-05T08:59:42Z
2019-09-05T07:02:23Z,42.805,6.029,13.2958,4.59953,2469.83,2019-9-05T09:02:45Z
2019-09-05T07:05:26Z,42.805,6.029,13.2959,4.59954,2469.83,2019-9-05T09:05:48Z
2019-09-05T07:08:29Z,42.805,6.029,13.2959,4.59953,2469.821,2019-9-05T09:08:52Z
2019-09-05T07:11:32Z,42.805,6.029,13.2960,4.59953,2469.844,2019-9-05T09:11:55Z
2019-09-05T07:14:36Z,42.805,6.029,13.2958,4.59953,2469.816,2019-9-05T09:14:58Z
2019-09-05T07:17:39Z,42.805,6.029,13.2958,4.59953,2469.83,2019-9-05T09:18:01Z
2019-09-05T07:20:42Z,42.805,6.029,13.2957,4.59953,2469.853,2019-9-05T09:21:04Z
2019-09-05T07:23:45Z,42.805,6.029,13.2959,4.59956,2469.844,2019-9-05T09:24:08Z
2019-09-05T07:26:48Z,42.805,6.029,13.2955,4.59957,2469.83,2019-9-05T09:27:11Z
2019-09-05T07:29:52Z,42.805,6.029,13.2961,4.59953,2469.83,2019-9-05T09:30:14Z
2019-09-05T07:32:55Z,42.805,6.029,13.2959,4.59954,2469.83,2019-9-05T09:33:17Z
2019-09-05T07:35:58Z,42.805,6.029,13.2959,4.59956,2469.853,2019-9-05T09:36:20Z
2019-09-05T07:39:01Z,42.805,6.029,13.2961,4.59954,2469.853,2019-9-05T09:39:23Z
2019-09-05T07:42:04Z,42.805,6.029,13.2957,4.59954,2469.867,2019-9-05T09:42:27Z
2019-09-05T07:45:08Z,42.805,6.029,13.2959,4.59958,2469.83,2019-9-05T09:45:30Z
2019-09-05T07:48:11Z,42.805,6.029,13.2959,4.59957,2469.876,2019-9-05T09:48:33Z
2019-09-05T07:51:14Z,42.805,6.029,13.2956,4.59958,2469.83,2019-9-05T09:51:36Z
2019-09-05T07:54:17Z,42.805,6.029,13.2953,4.59956,2469.853,2019-9-05T09:54:40Z
2019-09-05T07:57:20Z,42.805,6.029,13.2957,4.59955,2469.863,2019-9-05T09:57:43Z
2019-09-05T08:00:24Z,42.805,6.029,13.2957,4.59957,2469.867,2019-9-05T10:00:46Z
2019-09-05T08:03:27Z,42.805,6.029,13.2958,4.59954,2469.876,2019-9-05T10:03:49Z
2019-09-05T08:06:30Z,42.805,6.029,13.2959,4.59954,2469.89,2019-9-05T10:06:52Z
2019-09-05T08:09:33Z,42.805,6.029,13.2958,4.59956,2469.853,2019-9-05T10:09:55Z
2019-09-05T08:12:36Z,42.805,6.029,13.2960,4.59954,2469.853,2019-9-05T10:12:59Z
2019-09-05T08:15:40Z,42.805,6.029,13.2959,4.59954,2469.876,2019-9-05T10:16:02Z
2019-09-05T08:18:43Z,42.805,6.029,13.2958,4.59955,2469.9,2019-9-05T10:19:05Z
2019-09-05T08:21:46Z,42.805,6.029,13.2957,4.59955,2469.853,2019-9-05T10:22:08Z
2019-09-05T08:24:49Z,42.805,6.029,13.2955,4.59953,2469.9,2019-9-05T10:25:11Z
2019-09-05T08:27:52Z,42.805,6.029,13.2956,4.59954,2469.89,2019-9-05T10:28:15Z
2019-09-05T08:30:56Z,42.805,6.029,13.2957,4.59955,2469.876,2019-9-05T10:31:18Z
2019-09-05T08:33:59Z,42.805,6.029,13.2957,4.59953,2469.876,2019-9-05T10:34:21Z
2019-09-05T08:37:02Z,42.805,6.029,13.2957,4.59954,2469.876,2019-9-05T10:37:24Z
2019-09-05T08:40:05Z,42.805,6.029,13.2957,4.59954,2469.876,2019-9-05T10:40:28Z
2019-09-05T08:43:08Z,42.805,6.029,13.2957,4.59954,2469.853,2019-9-05T10:43:31Z
2019-09-05T08:46:12Z,42.805,6.029,13.2956,4.59953,2469.89,2019-9-05T10:46:34Z
2019-09-05T08:49:15Z,42.805,6.029,13.2956,4.59954,2469.876,2019-9-05T10:49:37Z
2019-09-05T08:52:18Z,42.805,6.029,13.2958,4.59957,2469.89,2019-9-05T10:52:40Z
2019-09-05T08:55:21Z,42.805,6.029,13.2958,4.59954,2469.9,2019-9-05T10:55:44Z
2019-09-05T08:58:24Z,42.805,6.029,13.2954,4.59954,2469.853,2019-9-05T10:58:47Z
2019-09-05T09:01:28Z,42.805,6.029,13.2958,4.59954,2469.914,2019-9-05T11:01:50Z
2019-09-05T09:04:31Z,42.805,6.029,13.2957,4.59954,2469.9,2019-9-05T11:04:53Z
2019-09-05T09:07:34Z,42.805,6.029,13.2957,4.59954,2469.9,2019-9-05T11:07:56Z
2019-09-05T09:10:37Z,42.805,6.029,13.2956,4.59956,2469.9,2019-9-05T11:11:00Z
2019-09-05T09:13:40Z,42.805,6.029,13.2956,4.59953,2469.923,2019-9-05T11:14:03Z
2019-09-05T09:16:44Z,42.805,6.029,13.2955,4.59955,2469.923,2019-9-05T11:17:06Z
2019-09-05T09:19:47Z,42.805,6.029,13.2959,4.59955,2469.909,2019-9-05T11:20:09Z
2019-09-05T09:22:50Z,42.805,6.029,13.2959,4.59961,2469.9,2019-9-05T11:23:12Z
2019-09-05T09:25:53Z,42.805,6.029,13.2957,4.59954,2469.9,2019-9-05T11:26:16Z
2019-09-05T09:28:56Z,42.805,6.029,13.2958,4.59954,2469.947,2019-9-05T11:29:19Z
2019-09-05T09:32:00Z,42.805,6.029,13.2958,4.59954,2469.923,2019-9-05T11:32:22Z
2019-09-05T09:35:03Z,42.805,6.029,13.2953,4.59955,2469.9,2019-9-05T11:35:25Z
2019-09-05T09:38:06Z,42.805,6.029,13.2955,4.59956,2469.9,2019-9-05T11:38:28Z
2019-09-05T09:41:09Z,42.805,6.029,13.2957,4.59954,2469.947,2019-9-05T11:41:32Z
2019-09-05T09:44:12Z,42.805,6.029,13.2958,4.59955,2469.947,2019-9-05T11:44:35Z
2019-09-05T09:47:16Z,42.805,6.029,13.2961,4.59957,2469.947,2019-9-05T11:47:38Z
2019-09-05T09:50:19Z,42.805,6.029,13.2960,4.59954,2469.923,2019-9-05T11:50:41Z
2019-09-05T09:53:22Z,42.805,6.029,13.2955,4.59954,2469.923,2019-9-05T11:53:44Z
2019-09-05T09:56:25Z,42.805,6.029,13.2954,4.59957,2469.97,2019-9-05T11:56:47Z
2019-09-05T09:59:28Z,42.805,6.029,13.2958,4.59954,2469.937,2019-9-05T11:59:51Z
2019-09-05T10:02:32Z,42.805,6.029,13.2958,4.59957,2469.923,2019-9-05T12:02:54Z
2019-09-05T10:05:35Z,42.805,6.029,13.2954,4.59956,2469.923,2019-9-05T12:05:57Z
2019-09-05T10:08:38Z,42.805,6.029,13.2958,4.59954,2469.923,2019-9-05T12:09:00Z
2019-09-05T10:11:41Z,42.805,6.029,13.2961,4.59953,2469.947,2019-9-05T12:12:03Z
2019-09-05T10:14:44Z,42.805,6.029,13.2959,4.59954,2469.96,2019-9-05T12:15:07Z
2019-09-05T10:17:48Z,42.805,6.029,13.2961,4.59955,2469.96,2019-9-05T12:18:10Z
2019-09-05T10:20:51Z,42.805,6.029,13.2960,4.59954,2469.937,2019-9-05T12:21:13Z
2019-09-05T10:23:54Z,42.805,6.029,13.2957,4.59956,2469.947,2019-9-05T12:24:16Z
2019-09-05T10:26:57Z,42.805,6.029,13.2957,4.59954,2469.947,2019-9-05T12:27:19Z
2019-09-05T10:30:00Z,42.805,6.029,13.2957,4.59954,2469.947,2019-9-05T12:30:23Z
2019-09-05T10:33:04Z,42.805,6.029,13.2956,4.59954,2469.923,2019-9-05T12:33:26Z
2019-09-05T10:36:07Z,42.805,6.029,13.2957,4.59954,2469.97,2019-9-05T12:36:29Z
2019-09-05T10:39:10Z,42.805,6.029,13.2961,4.59958,2470.007,2019-9-05T12:39:32Z
2019-09-05T10:42:13Z,42.805,6.029,13.2957,4.59958,2469.97,2019-9-05T12:42:36Z
2019-09-05T10:45:16Z,42.805,6.029,13.2958,4.59955,2469.947,2019-9-05T12:45:39Z
2019-09-05T10:48:20Z,42.805,6.029,13.2958,4.59956,2469.937,2019-9-05T12:48:42Z
2019-09-05T10:51:23Z,42.805,6.029,13.2957,4.59955,2469.96,2019-9-05T12:51:45Z
2019-09-05T10:54:26Z,42.805,6.029,13.2958,4.59956,2469.984,2019-9-05T12:54:48Z
2019-09-05T10:57:29Z,42.805,6.029,13.2954,4.59954,2469.947,2019-9-05T12:57:52Z
2019-09-05T11:00:32Z,42.805,6.029,13.2955,4.59956,2469.97,2019-9-05T13:00:55Z
2019-09-05T11:03:36Z,42.805,6.029,13.2961,4.59955,2469.947,2019-9-05T13:03:58Z
2019-09-05T11:06:39Z,42.805,6.029,13.2957,4.59954,2469.947,2019-9-05T13:07:01Z
2019-09-05T11:09:42Z,42.805,6.029,13.2961,4.59954,2469.96,2019-9-05T13:10:04Z
2019-09-05T11:12:45Z,42.805,6.029,13.2958,4.59953,2469.97,2019-9-05T13:13:08Z
2019-09-05T11:15:48Z,42.805,6.029,13.2957,4.59954,2469.97,2019-9-05T13:16:11Z
2019-09-05T11:18:52Z,42.805,6.029,13.2959,4.59955,2469.984,2019-9-05T13:19:14Z
2019-09-05T11:21:55Z,42.805,6.029,13.2953,4.59954,2469.97,2019-9-05T13:22:17Z
2019-09-05T11:24:58Z,42.805,6.029,13.2961,4.59953,2469.97,2019-9-05T13:25:20Z
2019-09-05T11:28:01Z,42.805,6.029,13.2957,4.59953,2469.984,2019-9-05T13:28:24Z
2019-09-05T11:31:04Z,42.805,6.029,13.2958,4.59953,2469.984,2019-9-05T13:31:27Z
2019-09-05T11:34:08Z,42.805,6.029,13.2956,4.59954,2469.97,2019-9-05T13:34:30Z
2019-09-05T11:37:11Z,42.805,6.029,13.2956,4.59956,2470.007,2019-9-05T13:37:33Z
2019-09-05T11:40:14Z,42.805,6.029,13.2961,4.59954,2469.984,2019-9-05T13:40:37Z
2019-09-05T11:43:17Z,42.805,6.029,13.2957,4.59954,2469.947,2019-9-05T13:43:40Z
2019-09-05T11:46:21Z,42.805,6.029,13.2952,4.59955,2469.947,2019-9-05T13:46:43Z
2019-09-05T11:49:24Z,42.805,6.029,13.2957,4.59955,2469.96,2019-9-05T13:49:46Z
2019-09-05T11:52:27Z,42.805,6.029,13.2957,4.59954,2469.96,2019-9-05T13:52:49Z
2019-09-05T11:55:30Z,42.805,6.029,13.2958,4.59955,2469.947,2019-9-05T13:55:53Z
2019-09-05T11:58:33Z,42.805,6.029,13.2963,4.59955,2469.947,2019-9-05T13:58:56Z
2019-09-05T12:01:37Z,42.805,6.029,13.2961,4.59955,2469.96,2019-9-05T14:01:59Z
2019-09-05T12:04:40Z,42.805,6.029,13.2958,4.59954,2469.984,2019-9-05T14:05:02Z
2019-09-05T12:07:43Z,42.805,6.029,13.2957,4.59954,2469.97,2019-9-05T14:08:05Z
2019-09-05T12:10:46Z,42.805,6.029,13.2954,4.59955,2469.96,2019-9-05T14:11:09Z
2019-09-05T12:13:49Z,42.805,6.029,13.2958,4.59957,2469.947,2019-9-05T14:14:12Z
2019-09-05T12:16:53Z,42.805,6.029,13.2961,4.59954,2469.947,2019-9-05T14:17:15Z
2019-09-05T12:19:56Z,42.805,6.029,13.2956,4.59956,2469.947,2019-9-05T14:20:18Z
2019-09-05T12:22:59Z,42.805,6.029,13.2957,4.59956,2469.96,2019-9-05T14:23:21Z
2019-09-05T12:26:02Z,42.805,6.029,13.2956,4.59955,2469.947,2019-9-05T14:26:24Z
2019-09-05T12:29:05Z,42.805,6.029,13.2957,4.59956,2469.947,2019-9-05T14:29:28Z
2019-09-05T12:32:09Z,42.805,6.029,13.2958,4.59956,2469.97,2019-9-05T14:32:31Z
2019-09-05T12:35:12Z,42.805,6.029,13.2958,4.59954,2469.947,2019-9-05T14:35:34Z
2019-09-05T12:38:15Z,42.805,6.029,13.2956,4.59954,2469.984,2019-9-05T14:38:37Z
2019-09-05T12:41:18Z,42.805,6.029,13.2953,4.59955,2469.97,2019-9-05T14:41:40Z
2019-09-05T12:44:21Z,42.805,6.029,13.2958,4.59954,2469.96,2019-9-05T14:44:44Z
2019-09-05T12:47:25Z,42.805,6.029,13.2956,4.59956,2469.947,2019-9-05T14:47:47Z
2019-09-05T12:50:28Z,42.805,6.029,13.2954,4.59954,2469.947,2019-9-05T14:50:50Z
2019-09-05T12:53:31Z,42.805,6.029,13.2957,4.59965,2469.937,2019-9-05T14:53:53Z
2019-09-05T12:56:34Z,42.805,6.029,13.2956,4.59955,2469.947,2019-9-05T14:56:57Z
2019-09-05T12:59:37Z,42.805,6.029,13.2963,4.59956,2469.937,2019-9-05T15:00:00Z
2019-09-05T13:02:41Z,42.805,6.029,13.2961,4.59958,2469.923,2019-9-05T15:03:03Z
2019-09-05T13:05:44Z,42.805,6.029,13.2957,4.59956,2469.914,2019-9-05T15:06:06Z
2019-09-05T13:08:47Z,42.805,6.029,13.2968,4.59969,2469.923,2019-9-05T15:09:09Z
2019-09-05T13:11:50Z,42.805,6.029,13.2966,4.59973,2469.923,2019-9-05T15:12:12Z
2019-09-05T13:14:53Z,42.805,6.029,13.2978,4.59967,2469.937,2019-9-05T15:15:16Z
2019-09-05T13:17:57Z,42.805,6.029,13.2973,4.59967,2469.923,2019-9-05T15:18:19Z
2019-09-05T13:21:00Z,42.805,6.029,13.2967,4.59963,2469.923,2019-9-05T15:21:22Z
2019-09-05T13:24:03Z,42.805,6.029,13.2960,4.59956,2469.923,2019-9-05T15:24:25Z
2019-09-05T13:27:06Z,42.805,6.029,13.2957,4.59956,2469.923,2019-9-05T15:27:28Z
2019-09-05T13:30:09Z,42.805,6.029,13.2958,4.59954,2469.947,2019-9-05T15:30:32Z
2019-09-05T13:33:13Z,42.805,6.029,13.2958,4.59954,2469.947,2019-9-05T15:33:35Z
2019-09-05T13:36:16Z,42.805,6.029,13.2972,4.59970,2469.914,2019-9-05T15:36:38Z
2019-09-05T13:39:19Z,42.805,6.029,13.2978,4.59970,2469.923,2019-9-05T15:39:41Z
2019-09-05T13:42:22Z,42.805,6.029,13.2971,4.59965,2469.923,2019-9-05T15:42:45Z
2019-09-05T13:45:25Z,42.805,6.029,13.2973,4.59963,2469.947,2019-9-05T15:45:48Z
2019-09-05T13:48:29Z,42.805,6.029,13.2974,4.59956,2469.937,2019-9-05T15:48:51Z
2019-09-05T13:51:32Z,42.805,6.029,13.2966,4.59978,2469.923,2019-9-05T15:51:54Z
2019-09-05T13:54:35Z,42.805,6.029,13.2971,4.59975,2469.96,2019-9-05T15:54:57Z
2019-09-05T13:57:38Z,42.805,6.029,13.2968,4.59966,2469.914,2019-9-05T15:58:01Z
2019-09-05T14:00:41Z,42.805,6.029,13.2958,4.59964,2469.923,2019-9-05T16:01:04Z
2019-09-05T14:03:45Z,42.805,6.029,13.2958,4.59953,2469.937,2019-9-05T16:04:07Z
2019-09-05T14:06:48Z,42.805,6.029,13.2956,4.59956,2469.914,2019-9-05T16:07:10Z
2019-09-05T14:09:51Z,42.805,6.029,13.2958,4.59961,2469.947,2019-9-05T16:10:13Z
2019-09-05T14:12:54Z,42.805,6.029,13.2961,4.59955,2469.937,2019-9-05T16:13:17Z
2019-09-05T14:15:57Z,42.805,6.029,13.2961,4.59953,2469.9,2019-9-05T16:16:20Z
2019-09-05T14:19:01Z,42.805,6.029,13.2958,4.59963,2469.923,2019-9-05T16:19:23Z
2019-09-05T14:22:04Z,42.805,6.029,13.2957,4.59955,2469.914,2019-9-05T16:22:26Z
2019-09-05T14:25:07Z,42.805,6.029,13.2958,4.59956,2469.96,2019-9-05T16:25:29Z
2019-09-05T14:28:10Z,42.805,6.029,13.2956,4.59957,2469.937,2019-9-05T16:28:33Z
2019-09-05T14:31:14Z,42.805,6.029,13.2961,4.59956,2469.96,2019-9-05T16:31:36Z
2019-09-05T14:34:17Z,42.805,6.029,13.2962,4.59960,2469.9,2019-9-05T16:34:39Z
2019-09-05T14:37:20Z,42.805,6.029,13.2961,4.59956,2469.937,2019-9-05T16:37:43Z
2019-09-05T14:40:23Z,42.805,6.029,13.2967,4.59954,2469.923,2019-9-05T16:40:46Z
2019-09-05T14:43:27Z,42.805,6.029,13.2957,4.59954,2469.886,2019-9-05T16:43:49Z
2019-09-05T14:46:30Z,42.805,6.029,13.2955,4.59958,2469.9,2019-9-05T16:46:52Z
2019-09-05T14:49:33Z,42.805,6.029,13.2960,4.59956,2469.9,2019-9-05T16:49:55Z
2019-09-05T14:52:36Z,42.805,6.029,13.2953,4.59956,2469.923,2019-9-05T16:52:58Z
2019-09-05T14:55:39Z,42.805,6.029,13.2955,4.59954,2469.937,2019-9-05T16:56:02Z
2019-09-05T14:58:43Z,42.805,6.029,13.2959,4.59954,2469.9,2019-9-05T16:59:05Z
2019-09-05T15:01:46Z,42.805,6.029,13.2958,4.59956,2469.9,2019-9-05T17:02:08Z
2019-09-05T15:04:49Z,42.805,6.029,13.2959,4.59956,2469.876,2019-9-05T17:05:11Z
2019-09-05T15:07:52Z,42.805,6.029,13.2958,4.59954,2469.937,2019-9-05T17:08:14Z
2019-09-05T15:10:55Z,42.805,6.029,13.2958,4.59955,2469.923,2019-9-05T17:11:18Z
2019-09-05T15:13:59Z,42.805,6.029,13.2956,4.59954,2469.9,2019-9-05T17:14:21Z